Weather observations for the past three days for
Manitowoc, Manitowoc County Airport
Imperial (Metric)
Date Time (cdt) Wind (mph) Vis. (mi.) Weather Sky Cond. Temperature (ºF) Relative Humidity Wind Chill (°F) Heat Index (°F) Pressure Precipitation (in)
Air Dwpt 6 hour altimeter (in) sea level (mb) 1 hr 3 hr 6 hr
Max. Min.
06 03:56 N 5 10.00 Fair CLR 32 32 100% 28 29.88 1012.3
06 02:56 Calm 10.00 Fair CLR 33.1 33.1 100% 29.87 1011.8
06 01:56 Calm 10.00 Fair CLR 37 33.1 86% 29.87 1011.8
06 00:56 NE 3 10.00 Fair CLR 37.9 32 50 37.9 79% 29.87 1011.9
05 23:56 NW 5 10.00 Fair CLR 39 26.1 60% 36 29.85 1011.4
05 22:56 W 5 10.00 Fair CLR 42.1 25 51% 40 29.85 1011.2
05 21:56 NW 6 10.00 Fair CLR 44.1 24.1 45% 41 29.85 1010.9
05 20:56 NW 8 10.00 Fair CLR 45 24.1 44% 41 29.83 1010.5
05 19:56 NW 13 10.00 Fair CLR 46.9 23 39% 42 29.8 1009.4
05 18:56 NW 20 G 25 10.00 Fair CLR 50 23 55 50 35% 44 29.79 1009.1
05 17:56 NW 17 G 23 10.00 Fair CLR 52 24.1 34% 29.77 1008.5
05 16:56 NW 21 G 25 10.00 Partly Cloudy and Breezy SCT070 54 23 30% 29.76 1008.1
05 15:56 W 21 G 30 10.00 Fair and Breezy CLR 54 24.1 31% 29.76 1007.9
05 14:56 W 15 G 29 10.00 Fair CLR 54 24.1 31% 29.75 1007.7
05 13:56 W 20 G 28 10.00 Fair CLR 54 24.1 31% 29.74 1007.5
05 12:56 W 18 G 26 10.00 A Few Clouds FEW060 53.1 26.1 54 44.1 35% 29.74 1007.5
05 11:56 W 18 G 25 10.00 Partly Cloudy SCT060 51.1 26.1 38% 29.74 1007.2
05 10:56 W 10 10.00 Partly Cloudy SCT060 51.1 27 39% 29.74 1007.2
05 09:56 W 12 G 20 10.00 Mostly Cloudy BKN055 51.1 27 39% 29.74 1007.1
05 08:56 W 12 10.00 Partly Cloudy SCT049 48.9 28 44% 45 29.74 1007.1
05 07:56 W 12 G 21 10.00 Fair CLR 46.9 26.1 44% 42 29.74 1007.2
05 06:56 W 6 10.00 Fair CLR 44.1 26.1 48.9 41 49% 41 29.72 1006.3
05 05:56 W 6 10.00 Fair CLR 41 24.1 51% 38 29.7 1005.7
05 04:56 W 6 10.00 Fair CLR 43 23 45% 40 29.69 1005.4
05 03:56 NW 10 10.00 Fair CLR 44.1 23 43% 39 29.66 1004.3
05 02:56 NW 15 G 21 10.00 Fair CLR 46 26.1 46% 40 29.63 1003.3
05 01:56 NW 13 10.00 Fair CLR 48.9 30.9 50% 44 29.62 1002.9
05 00:56 N 5 10.00 A Few Clouds FEW070 48 37 68 48 66% 47 29.61 1002.7
04 23:56 NE 8 G 18 10.00 Fair CLR 54 32 43% 29.57 1001.1
04 22:56 NW 13 10.00 Fair CLR 55.9 32 40% 29.53 999.8
04 21:56 NW 16 10.00 Fair CLR 59 30.9 35% 29.49 998.5
04 20:56 NW 15 G 21 10.00 Fair CLR 62.1 33.1 34% 29.44 996.9
04 19:56 NW 13 G 22 10.00 Fair CLR 64.9 34 32% 29.41 995.8
04 18:56 NW 10 10.00 Fair CLR 68 39 78.1 68 35% 29.38 994.9
04 17:56 W 25 G 35 10.00 Fair and Breezy CLR 72 37.9 29% 29.37 994.5
04 16:56 W 15 G 22 10.00 A Few Clouds FEW055 75.9 43 31% 77 29.35 993.6
04 15:56 SW 20 G 41 10.00 Light Rain FEW085 73 44.1 35% 29.36 994.0
04 14:56 W 21 G 29 10.00 Fair and Breezy CLR 75.9 41 29% 77 29.36 993.9
04 13:56 W 22 G 31 10.00 Fair and Breezy CLR 78.1 41 27% 78 29.36 994.1
04 12:56 SW 28 G 36 10.00 Fair and Windy CLR 75.9 39.9 75.9 55 27% 77 29.37 994.2
04 11:56 SW 25 G 33 10.00 Fair and Breezy CLR 73.9 39 28% 29.38 994.8
04 10:56 SW 26 G 38 10.00 Fair and Windy CLR 72 37 28% 29.41 995.8
04 09:56 SW 22 G 28 10.00 Fair and Breezy CLR 69.1 37 31% 29.44 996.7
04 08:56 SW 20 G 23 10.00 Fair CLR 66.9 36 32% 29.47 998.0
04 07:56 SW 15 10.00 Fair CLR 63 36 37% 29.49 998.7
04 06:56 SW 8 10.00 Fair CLR 55 36 55.9 48.9 49% 29.51 999.3
04 05:56 SW 6 10.00 Fair CLR 50 33.1 52% 48 29.52 999.6
04 04:56 W 6 10.00 Fair CLR 51.1 35.1 54% 29.54 1000.2
04 03:56 SW 6 10.00 Fair CLR 51.1 37.9 61% 29.56 1000.9
04 02:56 SW 6 10.00 Fair CLR 51.1 39 64% 29.57 1001.3
04 01:56 W 5 10.00 Fair CLR 53.1 39.9 61% 29.59 1001.8
04 00:56 W 7 10.00 Fair CLR 55.9 41 60.1 48.9 57% 29.61 1002.5
03 23:56 W 8 10.00 Fair CLR 55.9 41 57% 29.61 1002.4
03 22:56 SW 7 10.00 Fair CLR 57 42.1 58% 29.61 1002.6
03 21:56 SW 6 10.00 Fair CLR 57.9 43 58% 29.62 1002.9
03 20:56 S 6 10.00 Fair CLR 53.1 43 69% 29.61 1002.8
03 19:56 E 6 10.00 Fair CLR 51.1 43 74% 29.6 1002.5
03 18:56 S 6 G 20 10.00 Fair CLR 60.1 43 66.9 60.1 53% 29.59 1002.2
03 17:56 W 14 G 25 10.00 Fair CLR 66.9 39.9 37% 29.6 1002.1
03 16:56 SW 18 G 23 10.00 Fair CLR 66.9 41 39% 29.61 1002.4
03 15:56 SW 18 G 30 10.00 Fair CLR 66 39.9 39% 29.62 1003.1
03 14:56 SW 22 G 29 10.00 Fair and Breezy CLR 66 39.9 39% 29.65 1004.0
03 13:56 SW 22 G 30 10.00 Fair and Breezy CLR 64 41 43% 29.67 1005.1
03 12:56 SW 28 G 31 10.00 Fair and Windy CLR 62.1 42.1 62.1 50 48% 29.7 1005.9
03 11:56 W 23 G 36 10.00 Fair and Breezy CLR 61 39.9 46% 29.72 1006.7
03 10:56 SW 17 G 29 10.00 A Few Clouds FEW110 61 41 48% 29.74 1007.2
03 09:56 SW 18 G 26 10.00 Partly Cloudy SCT080 57 37.9 49% 29.75 1007.7
03 08:56 SW 16 G 20 10.00 A Few Clouds FEW075 54 35.1 49% 29.77 1008.2
03 07:56 SW 9 10.00 A Few Clouds FEW080 51.1 34 52% 29.78 1008.6
03 06:56 SW 9 10.00 Fair CLR 50 33.1 52 37 52% 47 29.79 1008.9
03 05:56 W 10 10.00 Light Rain FEW060 BKN080 51.1 33.1 50% 29.81 1009.5
03 04:56 W 13 10.00 Mostly Cloudy SCT070 BKN090 BKN110 51.1 30.9 46% 29.8 1009.3
Date Time (cdt) Wind (mph) Vis. (mi.) Weather Sky Cond. Air Dwpt Max. Min. Relative Humidity Wind Chill (°F) Heat Index (°F) altimeter (in) sea level (mb) 1 hr 3 hr 6 hr
6 hour
Temperature (ºF) Pressure Precipitation (in)